Location: Krasnoyarskiy Pitomnik
(51.1333°N, 71.6167°E)
Time: 08:17:43
(UTC+00:00)

PAYLOAD A - Pass Details

Date: 22 October 2021
Orbit: 692 x 831 km, 98.4° (Epoch: 06 December)

Event Time Altitude Azimuth Distance (km) Brightness Sun altitude
Rises 23:01:20 0° 15° (NNE) 3,216 7.6 -27.0°
Reaches altitude 10° 23:03:36 10° 16° (NNE) 2,307 6.8 -26.6°
Maximum altitude 23:08:43 84° 106° (ESE) 795 4.0 -25.8°
Enters shadow 23:09:51 56° 186° (S) 933 4.2 -25.7°
